Weather History for Mandan, ND

Change the Weather History Date:

Wednesday, November 21, 2012

  Actual Average (KBIS) Record (KBIS)
Temperature  
Mean Temperature 42 °F 26 °F  
Max Temperature 51 °F 36 °F 64 °F (2001)
Min Temperature 32 °F 16 °F -28 °F (1875)
Degree Days  
Heating Degree Days 24 39  
Month to date heating degree days 701  
Since 1 July heating degree days 1613  
Cooling Degree Days 0 0  
Month to date cooling degree days 0  
Year to date cooling degree days 520  
Moisture  
Dew Point 36 °F    
Average Humidity 82    
Maximum Humidity 100    
Minimum Humidity 62    
Precipitation  
Precipitation 0.00 in 0.02 in 0.38 in (1895)
Month to date precipitation 0.55  
Year to date precipitation 17.20  
Snow  
Snow 0.00 in 0.30 in 3.90 in (1895)
Month to date snowfall 6.1  
Since 1 July snowfall 8.5  
Since 1 September snowfall 8.5  
Snow Depth -    
Sea Level Pressure  
Sea Level Pressure 29.71 in    
Wind  
Wind Speed 7 mph (SSE)    
Max Wind Speed 18 mph    
Max Gust Speed 24 mph    
Visibility 10 miles    
Events      
T = Trace of Precipitation, MM = Missing Value Source: NWS Daily Summary

Daily Weather History Graph

Daily Weather History Graph

Search for Another Location

Airport:

Trip Planner

Search our weather history database for the weather conditions in past years. The results will help you decide how hot, cold, wet, or windy it might be!

Date:

Astronomy

Nov. 21, 2012 Rise Set
Actual Time 7:55 AM CST 5:03 PM CST
Civil Twilight 7:21 AM CST 5:36 PM CST
Nautical Twilight 6:44 AM CST 6:14 PM CST
Astronomical Twilight 6:08 AM CST 6:50 PM CST
Moon 1:41 PM CST (11/21) 12:53 AM CST (11/21)
Length of Visible Light 10h 15m
Length of Day
9h 07m
First Quarter, 62% of the Moon is Illuminated
Nov 21
First Quarter
Nov 28
Full
Dec 6
Last Quarter
Dec 13
New
Dec 19
First Quarter

Hourly Weather History & Observations

Time (CST) Temp. Windchill Dew Point Humidity Pressure Visibility Wind Dir Wind Speed Gust Speed Precip Events Conditions
12:15 AM 41.0 °F 35.8 °F 33.8 °F 76% 29.87 in 10.0 mi SSW 8.1 mph - N/A   Clear
12:35 AM 39.2 °F 33.0 °F 33.8 °F 81% 29.87 in 10.0 mi South 9.2 mph - N/A   Clear
12:55 AM 39.2 °F 35.9 °F 33.8 °F 81% 29.87 in 10.0 mi SSE 4.6 mph - N/A   Clear
1:15 AM 37.4 °F 34.9 °F 33.8 °F 87% 29.87 in 10.0 mi East 3.5 mph - N/A   Clear
1:35 AM 35.6 °F 32.8 °F 33.8 °F 93% 29.86 in 10.0 mi ESE 3.5 mph - N/A   Clear
1:55 AM 37.4 °F 34.9 °F 33.8 °F 87% 29.86 in 10.0 mi ESE 3.5 mph - N/A   Clear
2:15 AM 33.8 °F 28.6 °F 33.8 °F 100% 29.86 in 10.0 mi East 5.8 mph - N/A   Clear
2:35 AM 35.6 °F 29.9 °F 33.8 °F 93% 29.86 in 10.0 mi East 6.9 mph - N/A   Clear
2:55 AM 37.4 °F 32.8 °F 33.8 °F 87% 29.86 in 10.0 mi East 5.8 mph - N/A   Clear
3:15 AM 37.4 °F 32.8 °F 33.8 °F 87% 29.86 in 10.0 mi SE 5.8 mph - N/A   Clear
3:35 AM 35.6 °F 29.2 °F 33.8 °F 93% 29.85 in 10.0 mi ESE 8.1 mph - N/A   Clear
3:55 AM 35.6 °F 28.6 °F 33.8 °F 93% 29.84 in 10.0 mi SE 9.2 mph - N/A   Clear
4:15 AM 37.4 °F 31.4 °F 33.8 °F 87% 29.84 in 10.0 mi SE 8.1 mph - N/A   Clear
4:35 AM 35.6 °F 29.2 °F 33.8 °F 93% 29.84 in 10.0 mi ESE 8.1 mph - N/A   Clear
4:55 AM 35.6 °F 29.9 °F 33.8 °F 93% 29.83 in 10.0 mi ESE 6.9 mph - N/A   Clear
5:15 AM 35.6 °F 29.9 °F 33.8 °F 93% 29.83 in 10.0 mi ESE 6.9 mph - N/A   Clear
5:35 AM 33.8 °F 27.0 °F 33.8 °F 100% 29.82 in 10.0 mi ESE 8.1 mph - N/A   Clear
6:15 AM 33.8 °F 27.7 °F 32.0 °F 93% 29.81 in 10.0 mi SE 6.9 mph - N/A   Clear
6:35 AM 32.0 °F - 32.0 °F 100% 29.82 in 10.0 mi Calm Calm - N/A   Clear
6:55 AM 33.8 °F 27.7 °F 32.0 °F 93% 29.81 in 10.0 mi SE 6.9 mph - N/A   Clear
7:15 AM 35.6 °F 29.9 °F 33.8 °F 93% 29.80 in 10.0 mi SE 6.9 mph - N/A   Clear
7:35 AM 33.8 °F 27.0 °F 33.8 °F 100% 29.80 in 10.0 mi SE 8.1 mph - N/A   Clear
7:55 AM 33.8 °F 28.6 °F 33.8 °F 100% 29.80 in 10.0 mi ESE 5.8 mph - N/A   Clear
8:15 AM 32.0 °F 24.8 °F 32.0 °F 100% 29.79 in 10.0 mi ESE 8.1 mph - N/A   Clear
8:35 AM 32.0 °F 25.6 °F 32.0 °F 100% 29.79 in 10.0 mi ESE 6.9 mph - N/A   Clear
8:55 AM 33.8 °F 27.0 °F 33.8 °F 100% 29.78 in 10.0 mi ESE 8.1 mph - N/A   Clear
9:15 AM 33.8 °F 28.6 °F 33.8 °F 100% 29.78 in 10.0 mi SE 5.8 mph - N/A   Clear
9:35 AM 33.8 °F 28.6 °F 33.8 °F 100% 29.77 in 10.0 mi SSE 5.8 mph - N/A   Clear
9:55 AM 35.6 °F 31.7 °F 35.6 °F 100% 29.76 in 10.0 mi South 4.6 mph - N/A   Clear
10:15 AM 37.4 °F 32.8 °F 35.6 °F 93% 29.75 in 10.0 mi SSE 5.8 mph - N/A   Clear
10:35 AM 39.2 °F 35.0 °F 35.6 °F 87% 29.74 in 10.0 mi SE 5.8 mph - N/A   Clear
10:55 AM 39.2 °F 35.9 °F 35.6 °F 87% 29.74 in 10.0 mi SSE 4.6 mph - N/A   Clear
11:15 AM 39.2 °F - 35.6 °F 87% 29.73 in 10.0 mi Calm Calm - N/A   Clear
11:35 AM 41.0 °F 39.0 °F 35.6 °F 81% 29.73 in 10.0 mi SSE 3.5 mph - N/A   Clear
11:55 AM 41.0 °F 37.1 °F 37.4 °F 87% 29.71 in 10.0 mi South 5.8 mph - N/A   Clear
12:15 PM 44.6 °F 39.7 °F 37.4 °F 76% 29.70 in 10.0 mi South 9.2 mph - N/A   Clear
12:35 PM 44.6 °F 40.7 °F 37.4 °F 76% 29.69 in 10.0 mi South 6.9 mph - N/A   Clear
12:55 PM 46.4 °F 44.3 °F 37.4 °F 71% 29.68 in 10.0 mi South 4.6 mph - N/A   Clear
1:15 PM 48.2 °F - 37.4 °F 66% 29.67 in 10.0 mi SSE 4.6 mph - N/A   Clear
1:35 PM 50.0 °F - 37.4 °F 62% 29.65 in 10.0 mi SSE 8.1 mph - N/A   Clear
1:55 PM 50.0 °F - 37.4 °F 62% 29.64 in 10.0 mi SE 4.6 mph - N/A   Clear
2:15 PM 50.0 °F - 37.4 °F 62% 29.64 in 10.0 mi Calm Calm - N/A   Clear
2:35 PM 50.0 °F - 37.4 °F 62% 29.63 in 10.0 mi SE 3.5 mph - N/A   Clear
2:55 PM 51.8 °F - 39.2 °F 62% 29.62 in 10.0 mi SE 5.8 mph - N/A   Clear
3:15 PM 51.8 °F - 39.2 °F 62% 29.62 in 10.0 mi East 4.6 mph - N/A   Clear
3:35 PM 51.8 °F - 39.2 °F 62% 29.61 in 10.0 mi ESE 3.5 mph - N/A   Clear
4:15 PM 50.0 °F - 39.2 °F 66% 29.60 in 10.0 mi SE 4.6 mph - N/A   Clear
4:35 PM 50.0 °F - 37.4 °F 62% 29.60 in 10.0 mi SE 3.5 mph - N/A   Clear
4:55 PM 48.2 °F - 37.4 °F 66% 29.60 in 10.0 mi Calm Calm - N/A   Clear
5:15 PM 50.0 °F - 37.4 °F 62% 29.60 in 10.0 mi South 4.6 mph - N/A   Clear
5:35 PM 48.2 °F - 37.4 °F 66% 29.59 in 10.0 mi South 9.2 mph - N/A   Clear
5:55 PM 46.4 °F 42.9 °F 37.4 °F 71% 29.59 in 10.0 mi South 6.9 mph - N/A   Clear
6:15 PM 46.4 °F 42.9 °F 37.4 °F 71% 29.59 in 10.0 mi SSW 6.9 mph - N/A   Clear
6:35 PM 46.4 °F 42.4 °F 37.4 °F 71% 29.58 in 10.0 mi SSW 8.1 mph - N/A   Clear
6:55 PM 46.4 °F 42.9 °F 37.4 °F 71% 29.59 in 10.0 mi SSW 6.9 mph - N/A   Clear
7:15 PM 46.4 °F 42.4 °F 37.4 °F 71% 29.59 in 10.0 mi SSW 8.1 mph - N/A   Clear
7:35 PM 44.6 °F 41.4 °F 37.4 °F 76% 29.59 in 10.0 mi SSW 5.8 mph - N/A   Clear
7:55 PM 44.6 °F 41.4 °F 37.4 °F 76% 29.58 in 10.0 mi SSW 5.8 mph - N/A   Clear
8:15 PM 42.8 °F 40.1 °F 37.4 °F 81% 29.58 in 10.0 mi WSW 4.6 mph - N/A   Clear
8:35 PM 46.4 °F - 37.4 °F 71% 29.57 in 10.0 mi Calm Calm - N/A   Clear
8:55 PM 44.6 °F 43.1 °F 37.4 °F 76% 29.57 in 10.0 mi SW 3.5 mph - N/A   Clear
9:15 PM 39.2 °F 33.6 °F 37.4 °F 93% 29.58 in 10.0 mi WSW 8.1 mph - N/A   Clear
9:35 PM 39.2 °F 33.0 °F 37.4 °F 93% 29.59 in 10.0 mi West 9.2 mph - N/A   Clear
9:55 PM 41.0 °F 33.1 °F 37.4 °F 87% 29.60 in 10.0 mi WNW 15.0 mph - N/A   Clear
10:15 PM 44.6 °F 37.8 °F 37.4 °F 76% 29.61 in 10.0 mi NW 15.0 mph - N/A   Clear
10:35 PM 44.6 °F 38.4 °F 39.2 °F 81% 29.61 in 10.0 mi NW 12.7 mph 20.7 mph N/A   Clear
10:55 PM 44.6 °F 38.1 °F 39.2 °F 81% 29.62 in 10.0 mi NW 13.8 mph 20.7 mph N/A   Clear
11:15 PM 44.6 °F 37.2 °F 39.2 °F 81% 29.63 in 10.0 mi NW 17.3 mph - N/A   Clear
11:35 PM 44.6 °F 36.9 °F 39.2 °F 81% 29.65 in 10.0 mi NW 18.4 mph 24.2 mph N/A   Clear
11:55 PM 44.6 °F 36.9 °F 39.2 °F 81% 29.66 in 10.0 mi NW 18.4 mph 24.2 mph N/A   Mostly Cloudy